| time (UTC) | temp F | wind direction | speed knots | gust knots | rain 1hr in | rain 24hr in | rain mn in | humidity % | barometer mb |
| 20260903071107 | 71 | 124 | 3.5 | 7.0 | 0.00 | 0.00 | 0.00 | 59 | 1022.1 |
| 20260903064106 | 68 | 125 | 2.6 | 5.2 | 0.00 | 0.00 | 0.00 | 66 | 1022.4 |
| 20260903061107 | 65 | 134 | 3.5 | 5.2 | 0.00 | 0.00 | 0.00 | 72 | 1022.7 |
| 20260903054106 | 63 | 150 | 2.6 | 5.2 | 0.00 | 0.00 | 0.00 | 76 | 1022.9 |
| 20260903051107 | 62 | 144 | 1.7 | 4.3 | 0.00 | 0.00 | 0.00 | 77 | 1023.0 |
| 20260903044106 | 62 | 124 | 2.6 | 5.2 | 0.00 | 0.00 | 0.00 | 76 | 1023.0 |
| 20260903041106 | 62 | 134 | 2.6 | 5.2 | 0.00 | 0.00 | 0.00 | 76 | 1023.0 |
| 20260903031107 | 62 | 296 | 1.7 | 3.5 | 0.00 | 0.00 | 0.00 | 77 | 1023.0 |
| 20260903021106 | 63 | 288 | 1.7 | 4.3 | 0.00 | 0.00 | 0.00 | 75 | 1021.9 |
| 20260903014106 | 63 | 127 | 3.5 | 7.8 | 0.00 | 0.00 | 0.00 | 74 | 1021.9 |
| 20260903011107 | 63 | 132 | 4.3 | 7.8 | 0.00 | 0.00 | 0.00 | 75 | 1021.9 |
| 20260903004107 | 63 | 137 | 5.2 | 7.8 | 0.00 | 0.00 | 0.00 | 75 | 1021.9 |
| 20260903001506 | 63 | 123 | 5.2 | 7.0 | 0.00 | 0.00 | 0.00 | 75 | 1021.9 |
| 20260902234107 | 63 | 131 | 4.3 | 7.0 | 0.00 | 0.00 | 0.00 | 74 | 1021.9 |
| 20260902224107 | 64 | 110 | 2.6 | 4.3 | 0.00 | 0.00 | 0.00 | 73 | 1021.8 |
| 20260902221107 | 64 | 104 | 1.7 | 2.6 | 0.00 | 0.00 | 0.00 | 72 | 1021.7 |
| 20260902214107 | 66 | 111 | 0.9 | 3.5 | 0.00 | 0.00 | 0.00 | 69 | 1021.6 |
| 20260902211107 | 67 | 163 | 1.7 | 4.3 | 0.00 | 0.00 | 0.00 | 66 | 1021.5 |
| 20260902204108 | 68 | 124 | 3.5 | 6.1 | 0.00 | 0.00 | 0.00 | 65 | 1020.4 |
| 20260902201107 | 68 | 140 | 4.3 | 7.0 | 0.00 | 0.00 | 0.00 | 63 | 1020.3 |
| 20260902194107 | 69 | 133 | 2.6 | 4.3 | 0.00 | 0.00 | 0.00 | 62 | 1021.3 |
| 20260902191107 | 70 | 131 | 3.5 | 6.1 | 0.00 | 0.00 | 0.00 | 61 | 1020.1 |
| 20260902184107 | 70 | 145 | 2.6 | 7.0 | 0.00 | 0.00 | 0.00 | 60 | 1020.1 |
| 20260902181107 | 72 | 202 | 0.9 | 2.6 | 0.00 | 0.00 | 0.00 | 57 | 1019.9 |
| 20260902174107 | 74 | 219 | 0.9 | 2.6 | 0.00 | 0.00 | 0.00 | 55 | 1018.7 |
| 20260902171107 | 75 | 265 | 2.6 | 4.3 | 0.00 | 0.00 | 0.00 | 52 | 1018.6 |
| 20260902164107 | 76 | 262 | 2.6 | 4.3 | 0.00 | 0.00 | 0.00 | 50 | 1018.4 |
| 20260902161107 | 78 | 316 | 3.5 | 8.7 | 0.00 | 0.00 | 0.00 | 49 | 1018.3 |
| 20260902154107 | 78 | 329 | 6.1 | 10.4 | 0.00 | 0.00 | 0.00 | 47 | 1018.3 |
| 20260902151107 | 78 | 333 | 5.2 | 11.3 | 0.00 | 0.00 | 0.00 | 46 | 1018.3 |
| 20260902144107 | 78 | 339 | 7.0 | 12.2 | 0.00 | 0.00 | 0.00 | 47 | 1019.3 |
| 20260902141107 | 78 | 321 | 7.0 | 11.3 | 0.00 | 0.00 | 0.00 | 47 | 1019.4 |
| 20260902134106 | 77 | 323 | 7.8 | 13.0 | 0.00 | 0.00 | 0.00 | 48 | 1019.4 |
| 20260902131107 | 77 | 322 | 7.0 | 12.2 | 0.00 | 0.00 | 0.00 | 48 | 1019.5 |
| 20260902124106 | 76 | 326 | 7.0 | 12.2 | 0.00 | 0.00 | 0.00 | 48 | 1019.5 |
| 20260902121107 | 77 | 319 | 7.0 | 11.3 | 0.00 | 0.00 | 0.00 | 48 | 1019.4 |
| 20260902114107 | 77 | 316 | 7.0 | 13.0 | 0.00 | 0.00 | 0.00 | 50 | 1019.4 |
| 20260902111107 | 76 | 319 | 5.2 | 12.2 | 0.00 | 0.00 | 0.00 | 51 | 1019.5 |
| 20260902104107 | 76 | 335 | 4.3 | 8.7 | 0.00 | 0.00 | 0.00 | 52 | 1020.6 |
| 20260902101107 | 75 | 319 | 4.3 | 7.8 | 0.00 | 0.00 | 0.00 | 53 | 1020.7 |
| 20260902094107 | 73 | 317 | 3.5 | 6.1 | 0.00 | 0.00 | 0.00 | 55 | 1020.8 |
| 20260902091106 | 74 | 354 | 1.7 | 4.3 | 0.00 | 0.00 | 0.00 | 52 | 1020.8 |
| 20260902084106 | 73 | 98 | 1.7 | 4.3 | 0.00 | 0.00 | 0.00 | 55 | 1020.9 |
| 20260902081106 | 70 | 115 | 2.6 | 6.1 | 0.00 | 0.00 | 0.00 | 59 | 1021.2 |
| 20260902074107 | 69 | 105 | 4.3 | 7.0 | 0.00 | 0.00 | 0.00 | 63 | 1021.3 |